Location: Zerbst
(51.9650°N, 12.0766°E)
Time: 11:41:38
(UTC+02:00)

ISS - Pass Details

Date: 18 May 2017
Orbit: 402 x 409 km, 51.6° (Epoch: 24 May)

Event Time Altitude Azimuth Distance (km) Brightness Sun altitude
Exits shadow 02:24:03 48° 188° (S) 540 -3.7 -16.6°
Maximum altitude 02:24:26 52° 160° (SSE) 515 -3.7 -16.6°
Drops below altitude 10° 02:27:39 10° 83° (E) 1,466 -0.7 -16.4°
Sets 02:29:45 0° 79° (ENE) 2,326 0.5 -16.3°
